Hourly Weather Nesebyr

Today, 13 July, Monday

Time Temperature Precipitation Wind Pressure Humidity
00:00 +21°C° 0 mm 5 mps 757 mmHg 66%
01:00 +21°C° 0 mm 6 mps 758 mmHg 67%
02:00 +20°C° 0 mm 7 mps 758 mmHg 68%
03:00 +19°C° 0 mm 6 mps 758 mmHg 73%
04:00 +17°C° 0 mm 5 mps 758 mmHg 77%
05:00 +18°C° 0 mm 4 mps 758 mmHg 82%
06:00 +17°C° 0 mm 5 mps 759 mmHg 79%
07:00 +17°C° 0 mm 5 mps 759 mmHg 77%
08:00 +19°C° 0 mm 6 mps 759 mmHg 74%
09:00 +19°C° 0 mm 6 mps 759 mmHg 71%
10:00 +20°C° 0 mm 6 mps 759 mmHg 68%
11:00 +21°C° 0 mm 7 mps 760 mmHg 65%
12:00 +21°C° 0 mm 7 mps 760 mmHg 63%
13:00 +21°C° 0 mm 7 mps 760 mmHg 61%
14:00 +22°C° 0 mm 7 mps 760 mmHg 59%
15:00 +22°C° 0 mm 6 mps 759 mmHg 57%
16:00 +22°C° 0 mm 6 mps 759 mmHg 56%
17:00 +22°C° 0 mm 6 mps 759 mmHg 54%
18:00 +21°C° 0 mm 5 mps 759 mmHg 59%
19:00 +20°C° 0 mm 4 mps 759 mmHg 63%
20:00 +18°C° 0 mm 3 mps 759 mmHg 68%
21:00 +18°C° 0 mm 3 mps 759 mmHg 72%
22:00 +17°C° 0 mm 3 mps 760 mmHg 76%
23:00 +16°C° 0 mm 3 mps 760 mmHg 80%

Tomorrow, 14 July, Tuesday

Time Temperature Precipitation Wind Pressure Humidity
00:00 +16°C° 0 mm 3 mps 760 mmHg 82%
01:00 +14°C° 0 mm 3 mps 760 mmHg 83%
02:00 +14°C° 0 mm 3 mps 760 mmHg 85%
03:00 +14°C° 0 mm 3 mps 760 mmHg 86%
04:00 +14°C° 0 mm 3 mps 760 mmHg 87%
05:00 +13°C° 0 mm 3 mps 760 mmHg 88%
06:00 +16°C° 0 mm 3 mps 760 mmHg 78%
07:00 +18°C° 0 mm 4 mps 760 mmHg 69%
08:00 +21°C° 0 mm 4 mps 760 mmHg 59%
09:00 +22°C° 0 mm 4 mps 760 mmHg 53%
10:00 +25°C° 0 mm 5 mps 760 mmHg 46%
11:00 +26°C° 0 mm 5 mps 760 mmHg 40%
12:00 +26°C° 0 mm 5 mps 760 mmHg 39%
13:00 +27°C° 0 mm 5 mps 759 mmHg 38%
14:00 +27°C° 0 mm 5 mps 759 mmHg 38%
15:00 +27°C° 0 mm 5 mps 759 mmHg 40%
16:00 +26°C° 0 mm 5 mps 759 mmHg 42%
17:00 +26°C° 0 mm 5 mps 759 mmHg 44%
18:00 +23°C° 0 mm 4 mps 759 mmHg 52%
19:00 +21°C° 0 mm 3 mps 759 mmHg 61%
20:00 +19°C° 0 mm 3 mps 759 mmHg 69%
21:00 +18°C° 0 mm 3 mps 759 mmHg 72%
22:00 +18°C° 0 mm 2 mps 760 mmHg 75%
23:00 +17°C° 0 mm 2 mps 760 mmHg 78%

Day after tomorrow, 15 July, Wednesday

Time Temperature Precipitation Wind Pressure Humidity
00:00 +18°C° 0 mm 1 mps 760 mmHg 79%
01:00 +16°C° 0 mm 1 mps 760 mmHg 80%
02:00 +16°C° 0 mm 1 mps 760 mmHg 81%
03:00 +16°C° 0 mm 1 mps 760 mmHg 81%
04:00 +16°C° 0 mm 1 mps 760 mmHg 82%
05:00 +16°C° 0 mm 1 mps 760 mmHg 83%
06:00 +19°C° 0 mm 1 mps 760 mmHg 74%
07:00 +21°C° 0 mm 1 mps 760 mmHg 66%
08:00 +23°C° 0 mm 2 mps 760 mmHg 58%
09:00 +25°C° 0 mm 2 mps 760 mmHg 53%
10:00 +26°C° 0 mm 3 mps 760 mmHg 49%
11:00 +28°C° 0 mm 4 mps 760 mmHg 44%
12:00 +28°C° 0 mm 5 mps 760 mmHg 43%
13:00 +28°C° 0 mm 5 mps 759 mmHg 42%
14:00 +29°C° 0 mm 5 mps 759 mmHg 41%
15:00 +28°C° 0 mm 5 mps 759 mmHg 42%
16:00 +27°C° 0 mm 4 mps 759 mmHg 44%
17:00 +27°C° 0 mm 4 mps 759 mmHg 45%
18:00 +25°C° 0 mm 4 mps 759 mmHg 53%
19:00 +22°C° 0 mm 3 mps 759 mmHg 60%
20:00 +20°C° 0 mm 2 mps 759 mmHg 67%
21:00 +19°C° 0 mm 2 mps 759 mmHg 69%
22:00 +20°C° 0 mm 1 mps 759 mmHg 71%
23:00 +19°C° 0 mm 1 mps 759 mmHg 72%

16 July, Thursday

Time Temperature Precipitation Wind Pressure Humidity
00:00 +19°C° 0 mm 1 mps 759 mmHg 74%
01:00 +18°C° 0 mm 1 mps 759 mmHg 75%
02:00 +18°C° 0 mm 1 mps 759 mmHg 77%
03:00 +18°C° 0 mm 1 mps 759 mmHg 78%
04:00 +16°C° 0 mm 1 mps 758 mmHg 79%
05:00 +16°C° 0 mm 1 mps 758 mmHg 81%
06:00 +20°C° 0 mm 1 mps 758 mmHg 73%
07:00 +22°C° 0 mm 1 mps 758 mmHg 64%
08:00 +24°C° 0 mm 1 mps 758 mmHg 56%
09:00 +26°C° 0 mm 2 mps 758 mmHg 51%
10:00 +27°C° 0 mm 3 mps 758 mmHg 45%
11:00 +28°C° 0 mm 3 mps 758 mmHg 39%
12:00 +29°C° 0 mm 4 mps 757 mmHg 39%
13:00 +29°C° 0 mm 4 mps 757 mmHg 38%
14:00 +30°C° 0 mm 5 mps 757 mmHg 38%
15:00 +29°C° 0 mm 5 mps 757 mmHg 42%
16:00 +28°C° 0 mm 5 mps 756 mmHg 46%
17:00 +28°C° 0 mm 4 mps 756 mmHg 50%
18:00 +26°C° 0 mm 4 mps 756 mmHg 60%
19:00 +24°C° 0 mm 3 mps 756 mmHg 69%
20:00 +21°C° 0 mm 2 mps 757 mmHg 79%
21:00 +20°C° 0 mm 2 mps 757 mmHg 80%
22:00 +20°C° 0 mm 1 mps 757 mmHg 82%
23:00 +20°C° 0 mm 1 mps 757 mmHg 83%

17 July, Friday

Time Temperature Precipitation Wind Pressure Humidity
00:00 +19°C° 0 mm 1 mps 757 mmHg 82%
01:00 +19°C° 0 mm 1 mps 757 mmHg 82%
02:00 +18°C° 0 mm 1 mps 756 mmHg 82%
03:00 +18°C° 0 mm 1 mps 756 mmHg 83%
04:00 +18°C° 0 mm 1 mps 756 mmHg 83%
05:00 +16°C° 0 mm 1 mps 756 mmHg 83%
06:00 +20°C° 0 mm 1 mps 756 mmHg 76%
07:00 +21°C° 0 mm 2 mps 756 mmHg 69%
08:00 +25°C° 0 mm 2 mps 756 mmHg 61%
09:00 +26°C° 0.1 mm 3 mps 756 mmHg 59%
10:00 +27°C° 0.1 mm 4 mps 756 mmHg 57%
11:00 +28°C° 0.1 mm 5 mps 756 mmHg 55%
12:00 +29°C° 0 mm 5 mps 756 mmHg 51%
13:00 +29°C° 0 mm 5 mps 756 mmHg 48%
14:00 +30°C° 0 mm 6 mps 756 mmHg 44%
15:00 +29°C° 0 mm 5 mps 756 mmHg 45%
16:00 +29°C° 0 mm 5 mps 755 mmHg 46%
17:00 +28°C° 0 mm 5 mps 755 mmHg 47%
18:00 +26°C° 0 mm 5 mps 756 mmHg 59%
19:00 +25°C° 0 mm 4 mps 756 mmHg 70%
20:00 +22°C° 0 mm 3 mps 756 mmHg 81%
21:00 +21°C° 0 mm 3 mps 756 mmHg 83%
22:00 +21°C° 0 mm 3 mps 756 mmHg 84%
23:00 +20°C° 0 mm 3 mps 757 mmHg 86%

18 July, Saturday

Time Temperature Precipitation Wind Pressure Humidity
00:00 +20°C° 0 mm 3 mps 756 mmHg 87%
01:00 +20°C° 0 mm 2 mps 756 mmHg 88%
02:00 +19°C° 0 mm 2 mps 756 mmHg 89%
03:00 +19°C° 0 mm 2 mps 756 mmHg 90%
04:00 +19°C° 0 mm 2 mps 756 mmHg 91%
05:00 +19°C° 0 mm 2 mps 756 mmHg 91%
06:00 +21°C° 0 mm 3 mps 756 mmHg 82%
07:00 +24°C° 0 mm 3 mps 756 mmHg 74%
08:00 +26°C° 0 mm 4 mps 756 mmHg 65%
09:00 +28°C° 0 mm 5 mps 756 mmHg 59%
10:00 +29°C° 0 mm 5 mps 756 mmHg 52%
11:00 +30°C° 0 mm 6 mps 756 mmHg 46%
12:00 +32°C° 0 mm 6 mps 756 mmHg 44%
13:00 +32°C° 0 mm 6 mps 756 mmHg 41%
14:00 +32°C° 0 mm 7 mps 755 mmHg 39%
15:00 +32°C° 0 mm 6 mps 755 mmHg 42%
16:00 +30°C° 0 mm 6 mps 755 mmHg 45%
17:00 +29°C° 0 mm 6 mps 755 mmHg 48%
18:00 +27°C° 0 mm 5 mps 755 mmHg 59%
19:00 +25°C° 0 mm 4 mps 755 mmHg 70%
20:00 +22°C° 0 mm 3 mps 755 mmHg 81%
21:00 +22°C° 0 mm 3 mps 755 mmHg 84%
22:00 +21°C° 0 mm 3 mps 755 mmHg 87%
23:00 +21°C° 0 mm 3 mps 755 mmHg 90%
Show more